Redmond, OR

4:31 PM PST on December 10, 2019 (GMT -0800)
Roberts Field Airport

Weather History for KRDM - July, 2019

Change the Weather History Date:

Monday, July 22, 2019

  Actual Average Record
Temperature  
Mean Temperature 75 °F 67 °F  
Max Temperature 94 °F 87 °F 105 °F (1959)
Min Temperature 55 °F 47 °F 34 °F (1982)
Degree Days  
Heating Degree Days 0 2  
Month to date heating degree days 32 59  
Since 1 June heating degree days 181 276  
Since 1 July heating degree days 32 59  
Cooling Degree Days 10 4  
Month to date cooling degree days 42 64  
Year to date cooling degree days 70 93  
Since 1 June cooling degree days 70 88  
Growing Degree Days 23 (Base 50)    
Moisture  
Dew Point 45 °F    
Average Humidity 40    
Maximum Humidity 60    
Minimum Humidity 19    
Precipitation  
Precipitation T in 0.02 in 0.43 in (1987)
Month to date precipitation 0.22 0.40  
Year to date precipitation 7.46 5.08  
Sea Level Pressure  
Sea Level Pressure 29.94 in    
Wind  
Wind Speed 7 mph (WNW)    
Max Wind Speed 22 mph    
Max Gust Speed 26 mph    
Visibility 10 miles    
Events      
T = Trace of Precipitation, MM = Missing Value Source: NWS Daily Summary

Daily Weather History Graph

Daily Weather History Graph

Search for Another Location

Airport or City:

Astronomy

Jul. 22, 2019 Rise Set
Actual Time 5:41 AM PDT 8:40 PM PDT
Civil Twilight 5:06 AM PDT 9:14 PM PDT
Nautical Twilight 4:23 AM PDT 9:58 PM PDT
Astronomical Twilight 3:30 AM PDT 10:49 PM PDT
Moon 11:51 PM PDT (7/22) 11:13 AM PDT (7/22)
Length of Visible Light 16h 07m
Length of Day
14h 58m
Waning Gibbous, 71% of the Moon is Illuminated
Jul 22
Waning Gibbous
Jul 24
Last Quarter
Jul 31
New
Aug 7
First Quarter
Aug 15
Full

Hourly Weather History & Observations

Time (PDT) Temp. Dew Point Humidity Pressure Visibility Wind Dir Wind Speed Gust Speed Precip Events Conditions
12:56 AM 69.1 °F 37.9 °F 32% 29.92 in 10.0 mi West 8.1 mph - N/A   Clear
1:56 AM 66.9 °F 41.0 °F 39% 29.92 in 10.0 mi West 3.5 mph - N/A   Clear
2:56 AM 61.0 °F 43.0 °F 52% 29.92 in 10.0 mi SW 3.5 mph - N/A   Clear
3:56 AM 60.1 °F 43.0 °F 53% 29.92 in 10.0 mi SSE 4.6 mph - N/A   Clear
4:56 AM 57.0 °F 42.1 °F 57% 29.94 in 10.0 mi South 5.8 mph - N/A   Clear
5:56 AM 55.0 °F 41.0 °F 59% 29.95 in 10.0 mi SSE 4.6 mph - N/A   Clear
6:56 AM 63.0 °F 43.0 °F 48% 29.95 in 10.0 mi SSE 4.6 mph - N/A   Clear
7:56 AM 70.0 °F 45.0 °F 41% 29.95 in 10.0 mi Variable 3.5 mph - N/A   Clear
8:56 AM 73.0 °F 43.0 °F 34% 29.96 in 10.0 mi WNW 4.6 mph - N/A   Clear
9:56 AM 79.0 °F 39.0 °F 24% 29.96 in 10.0 mi Variable 3.5 mph - N/A   Clear
10:56 AM 82.0 °F 39.0 °F 22% 29.96 in 10.0 mi WNW 5.8 mph - N/A   Clear
11:56 AM 86.0 °F 39.9 °F 20% 29.95 in 10.0 mi WNW 3.5 mph - N/A   Clear
12:56 PM 88.0 °F 41.0 °F 19% 29.93 in 10.0 mi NW 5.8 mph - N/A   Clear
1:56 PM 91.9 °F 44.1 °F 19% 29.91 in 10.0 mi NW 8.1 mph 17.3 mph N/A   Clear
2:56 PM 91.9 °F 45.0 °F 20% 29.91 in 10.0 mi NNW 11.5 mph 17.3 mph N/A   Clear
3:56 PM 89.1 °F 48.0 °F 24% 29.93 in 10.0 mi NNW 10.4 mph - 0.00 in   Mostly Cloudy
4:56 PM 91.9 °F 48.9 °F 23% 29.91 in 10.0 mi NW 16.1 mph - N/A   Clear
5:56 PM 90.0 °F 50.0 °F 25% 29.92 in 10.0 mi NW 16.1 mph - N/A   Partly Cloudy
6:56 PM 87.1 °F 50.0 °F 28% 29.93 in 10.0 mi NW 13.8 mph 23.0 mph N/A   Scattered Clouds
7:56 PM 82.0 °F 50.0 °F 33% 29.93 in 10.0 mi NW 12.7 mph - N/A   Clear
8:56 PM 78.1 °F 51.1 °F 39% 29.95 in 10.0 mi NNW 10.4 mph - N/A   Clear
9:56 PM 73.0 °F 50.0 °F 44% 29.97 in 10.0 mi NNE 4.6 mph - N/A   Clear
10:56 PM 70.0 °F 50.0 °F 49% 29.98 in 10.0 mi NW 3.5 mph - N/A   Clear
11:56 PM 63.0 °F 48.9 °F 60% 29.99 in 10.0 mi SE 3.5 mph - N/A   Clear